[[{"header":{"parameterUnit":"m.s-1","parameterCategory":1,"la1":30.2991,"la2":30.254,"lo1":-89.0895,"lo2":-89.0444,"dy":0.0017,"dx":0.0017,"nx":28,"ny":28,"refTime":"2025-08-21T21:00:00:Z","depth":0,"parameterNumber":2,"parameterNumberName":"U-component_of_WINDS"},"data":[0,0,0,0,0,0,0,0,0,0,0,0,0,0,0,0,0,0,0,0,0,0,0,0,0,0,0,0,0,0,0,0,0,0,0,0,0,0,0,0,0,0,0,0,0,0,0,0,0,0,0,0,0,0,0,0,0,0,0.1902,0.1903,0,0.1995,0.1996,0.1997,0.2042,0.2042,0.2042,0.2042,0.2139,0.2142,0.2144,0,0,0,0,0,0,0,0,0,0,0,0,0,0.1765,0.1767,0.1902,0.1903,0.1905,0.1995,0.1996,0.1998,0.2042,0.2042,0.2042,0.2042,0.2138,0.2141,0.2145,0,0,0,0,0,0,0,0,0,0,0,0,0,0.1838,0.1768,0.1902,0.1937,0.1941,0.1995,0.1996,0.1998,0.2042,0.2042,0.2042,0.2042,0.2137,0.2141,0.2145,0.2171,0,0,0.2157,0.2159,0,0,0,0,0,0,0,0,0.1834,0.1843,0.1931,0.1935,0.194,0.2007,0.1984,0.2056,0.2042,0.2004,0.2042,0.2041,0.2095,0.2103,0.2121,0.2176,0.218,0.2158,0.216,0.2162,0.2163,0,0,0,0,0,0,0,0.1828,0.1839,0.1939,0.1932,0.1938,0.1949,0.196,0.1998,0.2049,0.2007,0.201,0.2021,0.2098,0.2117,0.2123,0.2181,0.2157,0.2161,0.2163,0.2165,0.2263,0.2263,0,0,0,0,0,0,0.1817,0.1835,0.1936,0.1942,0.1885,0.1952,0.1963,0.1985,0.2049,0.2058,0.2021,0.2022,0.211,0.2118,0.2127,0.2161,0.2162,0.2165,0.2168,0.2262,0.2263,0.2263,0,0,0,0,0,0,0.1814,0.1826,0.1932,0.1889,0.1904,0.1954,0.1979,0.1987,0.2006,0.2059,0.2069,0.203,0.211,0.2121,0.216,0.2165,0.2167,0.2171,0.2262,0.2262,0.2263,0.2231,0,0,0,0,0,0,0.181,0.1825,0.1835,0.1889,0.1906,0.1963,0.1979,0.1989,0.2013,0.2016,0.2071,0.208,0.2111,0.2153,0.2163,0.2171,0.2174,0.2262,0.2262,0.2263,0.2232,0.223,0.2229,0,0,0,0,0,0.1805,0.1822,0.1835,0.1847,0.1919,0.1963,0.1973,0.2008,0.2013,0.2024,0.2057,0.2078,0.2163,0.2157,0.2169,0.2177,0.2262,0.2262,0.2263,0.2232,0.223,0.2229,0,0,0,0,0,0,0.1768,0.183,0.1845,0.188,0.1916,0.1971,0.1985,0.2005,0.2041,0.2042,0.2085,0.2097,0.2132,0.2158,0.2151,0.2206,0.2214,0.2217,0.2187,0.2186,0.2184,0.2177,0.2177,0,0,0,0,0,0.1764,0.1794,0.1847,0.1873,0.189,0.1934,0.1955,0.1979,0.2018,0.2034,0.207,0.2108,0.2144,0.2166,0.2202,0.2235,0.2248,0.2247,0.2246,0.2244,0.2246,0.2266,0.2266,0.2264,0.2264,0.2264,0,0,0.1756,0.1794,0.181,0.1867,0.1897,0.1928,0.1947,0.1979,0.2002,0.2039,0.2077,0.2105,0.215,0.2186,0.2204,0.221,0.2249,0.2245,0.2243,0.2246,0.2267,0.2267,0.2267,0.2265,0.2265,0.2265,0,0,0.1758,0.1789,0.1814,0.1844,0.189,0.1919,0.1925,0.1977,0.1996,0.2035,0.2063,0.2092,0.2152,0.2183,0.2206,0.2218,0.2239,0.2229,0.2221,0.224,0.224,0.2241,0.2245,0.2246,0.2231,0.223,0.223,0,0.1743,0.1789,0.1825,0.1855,0.1879,0.1912,0.1938,0.1966,0.2021,0.2037,0.2043,0.2118,0.2151,0.2195,0.2197,0.2215,0.2224,0.2223,0.2237,0.2238,0.2239,0.2244,0.2245,0.2229,0.2229,0.2229,0.2229,0,0.1768,0.18,0.1815,0.1866,0.1892,0.192,0.196,0.1982,0.2003,0.2032,0.2071,0.2112,0.2156,0.2168,0.2189,0.2214,0.2217,0.2229,0.2238,0.2237,0.2242,0.2244,0.2227,0.2227,0.2228,0.2228,0,0,0.175,0.182,0.1825,0.1849,0.1901,0.1927,0.1956,0.1998,0.2016,0.2053,0.2079,0.2128,0.214,0.2166,0.2192,0.2208,0.2215,0.2219,0.222,0.2217,0.2246,0.2236,0.2238,0.2228,0.2229,0.2229,0.2242,0,0.1759,0.1812,0.1845,0.1886,0.1916,0.1947,0.1973,0.2008,0.2036,0.2066,0.2096,0.2131,0.2143,0.2159,0.2177,0.221,0.2222,0.221,0.2254,0.2255,0.2242,0.224,0.2231,0.2241,0.2244,0.2245,0.2245,0,0.1777,0.1812,0.1855,0.1903,0.1917,0.194,0.1981,0.2009,0.2049,0.2068,0.2097,0.2122,0.2155,0.2161,0.2207,0.2198,0.2218,0.2237,0.2238,0.2244,0.225,0.2247,0.2245,0.2246,0.2248,0.2248,0.2248,0,0.1759,0.1817,0.185,0.187,0.1927,0.1942,0.1967,0.2007,0.203,0.2067,0.2082,0.2122,0.2143,0.2174,0.2209,0.221,0.2251,0.226,0.2268,0.2267,0.2276,0.2275,0.2278,0.2288,0.2288,0.2288,0.2288,0,0.1766,0.1791,0.1843,0.1864,0.1893,0.193,0.1959,0.1986,0.2022,0.2048,0.2078,0.2103,0.2148,0.2178,0.2206,0.224,0.2249,0.2266,0.2273,0.2263,0.2261,0.2277,0.2278,0.2288,0.2288,0.2288,0.2288,0,0.1752,0.1788,0.1826,0.1877,0.189,0.191,0.1954,0.1975,0.2003,0.2037,0.2047,0.2092,0.2129,0.2167,0.2217,0.2236,0.2269,0.2279,0.2255,0.2259,0.2265,0.2264,0.2279,0.2283,0.2289,0.2289,0.2289,0,0.1754,0.1774,0.1827,0.1846,0.187,0.1902,0.1925,0.1963,0.1986,0.2033,0.2049,0.2088,0.2121,0.2179,0.2217,0.2255,0.2266,0.2269,0.2272,0.2262,0.2267,0.2265,0.2267,0.2267,0.2267,0.2267,0.2267,0,0.1754,0.1771,0.1803,0.1841,0.1868,0.19,0.1934,0.1948,0.1992,0.2017,0.2055,0.208,0.2131,0.217,0.2212,0.2239,0.226,0.2265,0.2269,0.226,0.2245,0.2253,0.2252,0.2265,0.2265,0.2265,0.2265,0.2265,0.1749,0.1768,0.1808,0.1843,0.1871,0.1902,0.1924,0.1955,0.1987,0.2031,0.2051,0.2089,0.2129,0.2188,0.2214,0.2244,0.2251,0.2256,0.2258,0.2259,0.2256,0.224,0.2252,0.2253,0.2253,0.2253,0.2253,0,0.1751,0.1778,0.1809,0.1854,0.1882,0.1898,0.1936,0.1958,0.1991,0.2026,0.2057,0.2101,0.2138,0.2178,0.2218,0.2235,0.2245,0.2244,0.2243,0.2249,0.2249,0.2241,0.2234,0.2234,0.2234,0.2234,0.2234,0.2234,0.1755,0.1788,0.1809,0.1857,0.1884,0.1921,0.1941,0.1969,0.1997,0.2044,0.2075,0.21,0.2138,0.218,0.2215,0.2226,0.2239,0.2235,0.2249,0.2248,0.2249,0.225,0.2244,0.2238,0.2237,0.2247,0.2247,0.2247]},{"header":{"parameterUnit":"m.s-1","parameterCategory":1,"la1":30.2991,"la2":30.254,"lo1":-89.0895,"lo2":-89.0444,"dy":0.0017,"dx":0.0017,"nx":28,"ny":28,"refTime":"2025-08-21T21:00:00:Z","depth":0,"parameterNumber":3,"parameterNumberName":"V-component_of_WINDS"},"data":[0,0,0,0,0,0,0,0,0,0,0,0,0,0,0,0,0,0,0,0,0,0,0,0,0,0,0,0,0,0,0,0,0,0,0,0,0,0,0,0,0,0,0,0,0,0,0,0,0,0,0,0,0,0,0,0,0,0,1.5807,1.5808,0,1.5917,1.5918,1.5919,1.598,1.598,1.598,1.598,1.6093,1.6096,1.6099,0,0,0,0,0,0,0,0,0,0,0,0,0,1.5649,1.5651,1.5807,1.5809,1.581,1.5917,1.5918,1.592,1.598,1.598,1.598,1.598,1.6092,1.6096,1.6099,0,0,0,0,0,0,0,0,0,0,0,0,0,1.5734,1.5652,1.5807,1.5853,1.5858,1.5916,1.5918,1.592,1.598,1.598,1.598,1.5981,1.6091,1.6095,1.61,1.6121,0,0,1.6113,1.6115,0,0,0,0,0,0,0,0,1.5729,1.574,1.5845,1.585,1.5856,1.5935,1.5904,1.5988,1.598,1.5934,1.598,1.5981,1.604,1.6049,1.6069,1.6126,1.6131,1.6113,1.6116,1.6117,1.6119,0,0,0,0,0,0,0,1.5723,1.5735,1.5851,1.5846,1.5853,1.5867,1.588,1.592,1.5984,1.5938,1.5942,1.5954,1.6044,1.6065,1.6072,1.6133,1.6113,1.6117,1.6119,1.6121,1.6211,1.6211,0,0,0,0,0,0,1.571,1.573,1.5847,1.5854,1.5792,1.587,1.5884,1.5909,1.5984,1.5996,1.5954,1.5957,1.6057,1.6067,1.6076,1.6105,1.6117,1.6121,1.6124,1.6212,1.6211,1.6211,0,0,0,0,0,0,1.5706,1.572,1.5843,1.5793,1.581,1.5873,1.5901,1.5911,1.5933,1.5996,1.6008,1.5964,1.6058,1.607,1.6109,1.611,1.6123,1.6127,1.6212,1.6212,1.6211,1.6164,0,0,0,0,0,0,1.5701,1.5718,1.5727,1.5793,1.5812,1.5874,1.5901,1.5913,1.594,1.5944,1.6009,1.602,1.6059,1.6102,1.6113,1.6116,1.6131,1.6212,1.6212,1.6211,1.6165,1.6162,1.6159,0,0,0,0,0,1.5695,1.571,1.5727,1.5741,1.5825,1.5874,1.5885,1.593,1.594,1.5949,1.599,1.6018,1.6108,1.6106,1.6119,1.6123,1.6212,1.6212,1.6211,1.6167,1.6162,1.6159,0,0,0,0,0,0,1.5644,1.572,1.574,1.5776,1.5818,1.5884,1.5897,1.5924,1.5964,1.5967,1.602,1.6034,1.6068,1.6099,1.6095,1.6146,1.6163,1.6165,1.6125,1.6121,1.6118,1.6109,1.6134,0,0,0,0,0,1.5636,1.5669,1.5734,1.576,1.578,1.5834,1.5858,1.5888,1.5934,1.5952,1.5996,1.6039,1.6077,1.6101,1.6139,1.617,1.6184,1.6179,1.6176,1.6173,1.6174,1.6191,1.6189,1.621,1.621,1.621,0,0,1.5622,1.5667,1.5685,1.5751,1.5787,1.5819,1.5849,1.5883,1.5908,1.5957,1.5996,1.6029,1.6081,1.6115,1.6133,1.6143,1.6171,1.6172,1.6169,1.6172,1.619,1.6188,1.6186,1.621,1.621,1.621,0,0,1.5612,1.565,1.5675,1.571,1.5764,1.58,1.5805,1.5867,1.5891,1.593,1.5968,1.5997,1.6062,1.6097,1.6123,1.6123,1.615,1.6134,1.6117,1.6133,1.6131,1.613,1.6129,1.6128,1.6135,1.6135,1.6135,0,1.5587,1.5638,1.5685,1.5716,1.5742,1.5788,1.5813,1.5844,1.5908,1.5925,1.5935,1.6016,1.6054,1.6096,1.6096,1.6116,1.6124,1.6127,1.6127,1.6127,1.6126,1.6126,1.6125,1.6133,1.6133,1.6133,1.6134,0,1.5604,1.5639,1.5652,1.5711,1.574,1.5768,1.5818,1.5841,1.5868,1.5902,1.5941,1.5988,1.6036,1.6049,1.6076,1.6094,1.6098,1.6117,1.6135,1.6121,1.6121,1.6122,1.613,1.613,1.6131,1.6132,0,0,1.5567,1.5649,1.5654,1.568,1.5741,1.5769,1.5797,1.5844,1.5862,1.5904,1.5929,1.5981,1.5998,1.6028,1.6059,1.6073,1.6069,1.609,1.6092,1.6084,1.609,1.6074,1.6074,1.6087,1.6087,1.6087,1.6085,0,1.5566,1.562,1.5661,1.5699,1.5731,1.5773,1.5798,1.5837,1.587,1.5901,1.5937,1.5973,1.5994,1.6011,1.6027,1.6066,1.607,1.6067,1.611,1.6111,1.6095,1.6074,1.6059,1.6055,1.6085,1.6086,1.6086,0,1.5572,1.561,1.5651,1.5707,1.5722,1.5743,1.5788,1.5817,1.5863,1.5885,1.5917,1.5949,1.598,1.5994,1.6038,1.6034,1.6055,1.6076,1.6077,1.6082,1.6097,1.6078,1.6055,1.6054,1.6087,1.6087,1.6086,0,1.5539,1.5601,1.5633,1.5655,1.5721,1.5735,1.5763,1.5809,1.5833,1.5872,1.5888,1.593,1.5953,1.5984,1.6027,1.6033,1.6065,1.6084,1.6084,1.6083,1.6089,1.6088,1.6068,1.6103,1.6103,1.6103,1.6103,0,1.5533,1.5556,1.5619,1.5639,1.5665,1.5712,1.5737,1.5769,1.5808,1.5834,1.5873,1.5897,1.5952,1.5982,1.6015,1.6045,1.6055,1.6074,1.6082,1.607,1.6068,1.6084,1.6085,1.6103,1.6103,1.6103,1.6103,0,1.5501,1.5545,1.5582,1.564,1.5656,1.5672,1.5722,1.5743,1.5776,1.5808,1.5819,1.5872,1.5909,1.5954,1.6006,1.6028,1.6055,1.6068,1.6039,1.6044,1.6042,1.6041,1.603,1.6031,1.6066,1.6066,1.6065,0,1.5495,1.5513,1.5573,1.5592,1.5619,1.5651,1.5675,1.5721,1.5745,1.5796,1.5809,1.5849,1.5883,1.594,1.5984,1.6023,1.6037,1.603,1.6043,1.6029,1.6036,1.6034,1.6035,1.6027,1.6027,1.6026,1.6026,0,1.5477,1.5497,1.5531,1.557,1.5598,1.5632,1.5668,1.5682,1.5735,1.5759,1.5797,1.5823,1.5875,1.5913,1.5958,1.5987,1.6014,1.6021,1.6023,1.6011,1.5992,1.6001,1.6029,1.6021,1.6022,1.6022,1.6022,1.6022,1.5458,1.5475,1.5519,1.5554,1.5585,1.5617,1.5638,1.5673,1.5705,1.575,1.5775,1.5812,1.5855,1.5917,1.5945,1.5973,1.5984,1.5987,1.5988,1.5988,1.5983,1.5988,1.5982,1.5982,1.5982,1.5982,1.5983,0,1.5442,1.5471,1.5503,1.5551,1.5578,1.56,1.564,1.5662,1.5693,1.573,1.5762,1.5804,1.5841,1.5886,1.5926,1.594,1.5953,1.5949,1.5948,1.5954,1.5973,1.5966,1.5937,1.5937,1.5937,1.5937,1.5937,1.5937,1.5437,1.5467,1.5491,1.5536,1.5566,1.5601,1.5621,1.565,1.568,1.5725,1.5755,1.5784,1.5824,1.5866,1.59,1.5913,1.5925,1.5916,1.5932,1.5949,1.5953,1.5956,1.5951,1.5919,1.5918,1.5911,1.591,1.591]}]]